Location: Devore Heights
(34.2372°N, 117.4156°W)
Time: 12:33:06
(UTC+00:00)

Altair - Visible Passes

Search period start: 15 November 2025 00:00
Search period end: 25 November 2025 00:00
Orbit: 1501 x 1682 km, 47.2° (Epoch: 14 November)

Date Brightness Start Highest point End Pass type
(mag) Time Alt. Az. Time Alt. Az. Time Alt. Az.
15 Nov 9.8 10:42:02 10° SE 10:44:31 11° ESE 10:46:59 10° ESE visible
15 Nov 8.1 12:38:41 10° SSW 12:47:53 55° SE 12:56:49 10° ENE visible
16 Nov 8.2 12:13:36 10° SSW 12:22:43 51° SE 12:31:33 10° ENE visible
17 Nov 8.3 11:48:57 11° SSW 11:57:33 46° SE 12:06:15 10° ENE visible
17 Nov 7.6 13:52:40 10° WSW 14:02:03 63° NNW 14:11:11 10° NE visible
18 Nov 8.3 11:26:54 23° S 11:32:23 42° SE 11:40:56 10° ENE visible
18 Nov 7.5 13:27:19 10° WSW 13:36:47 68° NNW 13:45:59 10° NE visible
19 Nov 8.4 11:04:27 32° SSE 11:07:13 38° SE 11:15:35 10° ENE visible
19 Nov 7.4 13:02:35 12° WSW 13:11:31 72° NNW 13:20:46 10° NE visible
20 Nov 8.5 10:41:44 35° SE 10:42:03 35° SE 10:50:12 10° ENE visible
20 Nov 7.4 12:39:51 24° WSW 12:46:15 77° NNW 12:55:33 10° NE visible
21 Nov 8.8 10:18:48 29° ESE 10:18:48 29° ESE 10:24:48 10° ENE visible
21 Nov 7.3 12:16:53 40° WSW 12:20:59 82° NW 12:30:20 10° NE visible
22 Nov 9.2 09:55:42 21° E 09:55:42 21° E 09:59:22 10° ENE visible
22 Nov 7.3 11:53:46 62° WSW 11:55:45 87° NW 12:05:07 10° NE visible
22 Nov 8.0 13:52:33 10° W 14:01:23 42° NNW 14:10:00 10° NE visible
23 Nov 9.6 09:32:27 14° E 09:32:27 14° E 09:33:53 10° ENE visible
23 Nov 7.3 11:30:31 87° SE 11:30:31 87° SE 11:39:54 10° NE visible
23 Nov 7.9 13:28:34 15° W 13:36:01 43° NNW 13:44:43 10° NE visible
24 Nov 7.7 11:07:09 63° ENE 11:07:09 63° ENE 11:14:40 10° NE visible
24 Nov 7.9 13:05:12 24° WNW 13:10:40 45° NNW 13:19:27 10° NE visible
